Location: Bacea
(45.9500°N, 22.6667°E)
Time: 21:40:07
(UTC+00:00)

Okean-O - Pass Details

Date: 16 October 2021
Orbit: 638 x 640 km, 98.2° (Epoch: 29 November)

Event Time Altitude Azimuth Distance (km) Brightness Sun altitude
Exits shadow 18:07:42 26° 201° (SSW) 1,250 4.1 -26.0°
Maximum altitude 18:09:48 47° 260° (W) 856 3.5 -26.4°
Drops below altitude 10° 18:14:06 10° 335° (NNW) 2,043 5.7 -27.1°
Sets 18:16:24 0° 341° (NNW) 2,957 6.5 -27.5°
